C/2015 O1 ( PanSTARRS )

Japanese version
Home page
Updated on March 25, 2017

---------------------------------------------------------------------

* Profile

Discovery Date July 19, 2015
Magnitude 19.6 mag
Discoverer Pan-STARRS 1 telescope (Haleakala)

* Pictures

* Orbital Elements

Epoch 2018 Feb. 11.0 TT = JDT 2458160.5
T 2018 Feb. 19.03406 TT                                 MPCW
q   3.7294664            (2000.0)            P               Q
z  -0.0000343      Peri.   89.59827     -0.52098621     -0.50148043
 +/-0.0000023      Node   299.85556     -0.59857184     +0.79153929
e   1.0001280      Incl.  127.21086     +0.60851057     +0.34926056
From 311 observations 2015 June 15-2016 Nov. 2, mean residual 0".5.

* Finding Charts

* Magnitudes Graph

        m1 = 4.8 + 5 log d + 10.0 log r

---------------------------------------------------------------------

The orbital elements are published on M.P.E.C. 2017-E59.
The charts are made with StellaNavigator Ver.8 (AstroArts).
The magnitudes graphs are made with Comet for Windows.

---------------------------------------------------------------------

Copyright(C) Seiichi Yoshida (comet@aerith.net). All rights reserved.